Погода в Худжанде

Погода в Худжанде : погода сейчас, прогноз погоды и архив. Всё, что Вы хотите узнать о погоде в Худжанде!

Поиск расширенной информации на нашем сайте:

Другие новости

Новости СМИ2

Главная страница сайта

Новости сайта

03.07.2017

Напоминаем, что на нашем специализированном сайте Метеоцентр.Азия вы можете получить высокодетализированные автоматические прогнозы погоды по пунктам России, СНГ и мира в авиационном формате (включающие направление и скорость ветра, видимость, явления погоды, количество и форму облачности, нижнюю и верхнюю границу облачности).

Рекомендуем: Как разбавить дресс-код?

Погода в Худжанде - сегодня

Время (UTC), дата Ветер
(°,м/с) 
Видим.   Явления Облачность Т
(°С)
Тd
(°С)
f(%) Тe
(°С)
Pmin
(гПа)
dP
(гПа)
Po
(мм)
O2
(г/м3)
Тmin Tmax R s Состояние
почвы
18 22.09.18 230 (ЮЗ) 10 км    8/0 средняя 
[Ac trans]
+19.9 +8.9 49 +21  1016.7  -0.2  726  271    +27.3       
21 22.09.18 220 (ЮЗ) 20000 м    5/0 средняя 
[Ac trans]
+18.7 +8.4 51 +19  1016.5  -0.4  726  272           
00 23.09.18 310 (СЗ) 10 км    ясно 
+26.2 +8.9 34 +27  1017.3  0.3  726  265           
03 23.09.18 260 (З) 20000 м    8/1 1500 м кучево-дожд., средняя 
[Cb cap|Ac trans]
+19.3 +7.7 47 +20  1017.4  0.6  726  272  +15.6         
06 23.09.18 260 (З) 20000 м    3/0 средняя 
[Ac cast]
+24.9 +5.2 28 +25  1015.6  -0.8  726  267  +15.6         
09 23.09.18 250 (З) 20000 м    10/0 средняя 
[Ac cast]
+24.7 +6 30 +25  1014.6  -1  725  267           
12 23.09.18 190 (Ю) 20000 м  слаб. ливневой дождь  10/6 1500 м кучево-дожд., средняя 
[Cb cap|Ac und]
+18.9 +10.2 57 +21  1017.4  1.8  726  272           
15 23.09.18 210 (ЮЗ) 10 км  {ливн. осадки}  4/1 2000 м кучево-дожд., средняя 
[Cb cap|Ac trans]
+19.4 +9.6 53 +21  1018.5  1.1  727  272    +27.4  0.7     
18 23.09.18 250 (З) 10 км  {ливн. осадки}  ясно 
+14.8 +9.8 72 +17  1019.5  0.2  727  276    +27.4  0.7     
21 23.09.18 210 (ЮЗ) 10 км    ясно 
+13.1 +9 76 +14  1019  -0.8  727  278           
00 24.09.18 080 (В) 10 км    ясно 
+14.9 +9.9 72 +16  1019.7  727  276           
03 24.09.18 070 (В) 20000 м    ясно 
+17.6 +9.8 60 +20  1019.3  0.1  727  274  +11.8         
06 24.09.18 070 (В) 20000 м    ясно 
+21.6 +7.4 40 +22  1018.5  -0.2  727  270  +11.8         
09 24.09.18 110 (В) 20000 м    1/0 верхняя 
[Ci fib]
+26.7 +5.6 26 +27  1016.1  -1.5  726  266           
12 24.09.18 250 (З) 20000 м    1/0 верхняя 
[Ci fib]
+26.6 +3.2 22 +27  1015.3  -0.8  726  266           
15 24.09.18 240 (ЮЗ) 10 км    6/0 верхняя 
[Ci sp]
+19.1 +6.3 43 +20  1017.2  0.7  726  272    +28.1       
18 24.09.18 290 (З) 10 км    5/0 верхняя 
[Ci fib]
+18.1 +5.7 44 +20  1017.5  0.1  726  273    +28.1       
21 24.09.18 230 (ЮЗ) 10 км    ясно 
+12.5 +6.3 66 +14  1018.1  -0.4  726  279           
00 25.09.18 210 (ЮЗ) 10 км    ясно 
+11.2 +5.9 70 +11  1018.4  0.1  726  280           
03 25.09.18 120 (ЮВ) 20000 м    ясно 
+18.1 +7.8 51 +20  1017.8  0.6  726  273  +10.1         
06 25.09.18 050 (СВ) 20000 м    ясно 
+22.8 +6.6 35 +23  1016.6  -0.4  726  269  +10.1         
09 25.09.18 060 (СВ) 20000 м    4/0 верхняя 
[Ci fib]
+26.6 +4.4 24 +27  1014  -1.9  725  265           
12 25.09.18 160 (Ю) 20000 м    5/0 верхняя 
[Ci fib]
+26.9 +3.4 22 +27  1013.1  -0.8  724  265           
15 25.09.18 230 (ЮЗ) 10 км    3/0 верхняя 
[Ci fib]
+19 +8.7 51 +20  1014.9  0.5  724  271    +27.5       
18 25.09.18 270 (З) 10 км    ясно 
+17.1 +7.5 53 +18  1014.9  -0.3  724  273    +27.5       
Время (UTC), дата Ветер
(°,м/с) 
Видим.   Явления Облачность Т
(°С)
Тd
(°С)
f(%) Тe
(°С)
Pmin
(гПа)
dP
(гПа)
Po
(мм)
O2
(г/м3)
Тmin Tmax R s Состояние
почвы

Для получения пояснительной информации подведите курсор к названию столбца.

ПОГОДА в Худжанде - архив

Всё, что Вы хотите узнать о погоде в Худжанде - удобно и подробно!

Выберите нужную дату (начиная с 1 января 2015* года) и нажмите кнопку "Найти".
Будут отображены архивные сводки погоды по пункту Худжанд, начиная с указанной даты.


Отображать данные в формате CSV (для использования в таблицах Excel)


Внимание! Наш архив погоды предназначен исключительно для личного некоммерческого использования в познавательных целях. Если Вам необходимы официальные справки о состоянии погоды (для производственных, юридических, коммерческих и т.п. целей), обращайтесь в органы Росгидромета.

*Примечание: данная дата относится к архиву по метеостанциям СССР (Россия, СНГ, Балтия).
Архив по метеостанциям Зарубежной Европы и Азии (кроме Китая) хранится 10 дней, по другим регионам земного шара (Китай, Африка, Америка, Австралия, Океания) - 1 день.

Худжанд - район местоположения метеостанции


Название, широта, долгота, высота метеостанции:
Худжанд 40.2°ш. 69.7°д. 427 м над ур. моря [Таджикистан]

Дополнительная информация

В oтличие oт бoльшинства пoгoдных сайтoв мы публикуем пoдрoбную метеoинфoрмацию в детальнoм прoфессиoнальнoм фoрмате.

Характеристики температуры и влажнoсти вoздуха измеряются на высoте 2 м в тени вдали oт зданий и деревьев.
Скoрoсть ветра измеряется на высoте 10 м (на урoвне рoста челoвека скoрoсть ветра ниже в 1.5-2 раза). Если метеoстанция нахoдится в гoрoде или в лесу, тo скoрoсть ветра занижена на 2-4 м/с пo сравнению с oткрытым местoм. Скoрoсть ветра над акватoриями крупных рек и oзёр, а также на вершинах хoлмoв на 2-5 м/с выше, чем в oбычных услoвиях.
Атмoсфернoе давление в разных тoчках местнoсти мoжет значительнo oтличаться oт давления на метеoстанции, в зависимoсти oт услoвий рельефа (при пoдъёме на 10 м давление пoнижается примернo на 1 мм рт.ст.).